owner,sensor,date,latitude,longitude,vertical_datum,wind_speed,wind_to_direction,wind_speed_of_gust,qcFlag 
ADCP,ioos:station:wmo:42361:1,2015-02-03T06:30:00Z,27.5500,-92.4900,122.0,99.0,-9999.0,99.0,'11144222,99999999,11144222' 
ADCP,ioos:station:wmo:42361:1,2015-02-03T07:30:00Z,27.5500,-92.4900,122.0,99.0,-9999.0,99.0,'11144222,99999999,11144222' 
ADCP,ioos:station:wmo:42361:1,2015-02-03T08:30:00Z,27.5500,-92.4900,122.0,99.0,-9999.0,99.0,'11144222,99999999,11144222' 
ADCP,ioos:station:wmo:42361:1,2015-02-03T09:30:00Z,27.5500,-92.4900,122.0,99.0,-9999.0,99.0,'11144222,99999999,11144222' 
ADCP,ioos:station:wmo:42361:1,2015-02-03T10:30:00Z,27.5500,-92.4900,122.0,99.0,-9999.0,99.0,'11144222,99999999,11144222' 
ADCP,ioos:station:wmo:42361:1,2015-02-03T11:30:00Z,27.5500,-92.4900,122.0,99.0,-9999.0,99.0,'11144222,99999999,11144222' 
ADCP,ioos:station:wmo:42361:1,2015-02-03T12:30:00Z,27.5500,-92.4900,122.0,99.0,-9999.0,99.0,'11144222,99999999,11144222' 
ADCP,ioos:station:wmo:42361:1,2015-02-03T13:30:00Z,27.5500,-92.4900,122.0,99.0,-9999.0,99.0,'11144222,99999999,11144222' 
ADCP,ioos:station:wmo:42361:1,2015-02-03T14:30:00Z,27.5500,-92.4900,122.0,99.0,-9999.0,99.0,'11144222,99999999,11144222' 
ADCP,ioos:station:wmo:42361:1,2015-02-03T15:30:00Z,27.5500,-92.4900,122.0,99.0,-9999.0,99.0,'11144222,99999999,11144222' 
ADCP,ioos:station:wmo:42361:1,2015-02-03T16:30:00Z,27.5500,-92.4900,122.0,99.0,-9999.0,99.0,'11144222,99999999,11144222' 
ADCP,ioos:station:wmo:42361:1,2015-02-03T17:30:00Z,27.5500,-92.4900,122.0,99.0,-9999.0,99.0,'11144222,99999999,11144222' 
ADCP,ioos:station:wmo:42361:1,2015-02-03T18:30:00Z,27.5500,-92.4900,122.0,99.0,-9999.0,99.0,'11144222,99999999,11144222' 
ADCP,ioos:station:wmo:42361:1,2015-02-03T19:30:00Z,27.5500,-92.4900,122.0,99.0,-9999.0,99.0,'11144222,99999999,11144222' 
ADCP,ioos:station:wmo:42361:1,2015-02-03T20:30:00Z,27.5500,-92.4900,122.0,99.0,-9999.0,99.0,'11144222,99999999,11144222' 
ADCP,ioos:station:wmo:42361:1,2015-02-03T21:30:00Z,27.5500,-92.4900,122.0,99.0,-9999.0,99.0,'11144222,99999999,11144222' 
ADCP,ioos:station:wmo:42361:1,2015-02-03T22:30:00Z,27.5500,-92.4900,122.0,99.0,-9999.0,99.0,'11144222,99999999,11144222' 
ADCP,ioos:station:wmo:42361:1,2015-02-03T23:30:00Z,27.5500,-92.4900,122.0,99.0,-9999.0,99.0,'11144222,99999999,11144222' 
ADCP,ioos:station:wmo:42361:1,2015-02-04T00:30:00Z,27.5500,-92.4900,122.0,99.0,-9999.0,99.0,'11144222,99999999,11144222' 
ADCP,ioos:station:wmo:42361:1,2015-02-04T01:30:00Z,27.5500,-92.4900,122.0,99.0,-9999.0,99.0,'11144222,99999999,11144222' 
ADCP,ioos:station:wmo:42361:1,2015-02-04T02:30:00Z,27.5500,-92.4900,122.0,99.0,-9999.0,99.0,'11144222,99999999,11144222' 
ADCP,ioos:station:wmo:42361:1,2015-02-04T03:30:00Z,27.5500,-92.4900,122.0,99.0,-9999.0,99.0,'11144222,99999999,11144222' 
ADCP,ioos:station:wmo:42361:1,2015-02-04T04:30:00Z,27.5500,-92.4900,122.0,99.0,-9999.0,99.0,'11144222,99999999,11144222' 
ADCP,ioos:station:wmo:42361:1,2015-02-04T05:30:00Z,27.5500,-92.4900,122.0,99.0,-9999.0,99.0,'11144222,99999999,11144222' 
ADCP,ioos:station:wmo:42361:1,2015-02-04T06:30:00Z,27.5500,-92.4900,122.0,99.0,-9999.0,99.0,'11144222,99999999,11144222' 
ADCP,ioos:station:wmo:42361:1,2015-02-04T07:30:00Z,27.5500,-92.4900,122.0,99.0,-9999.0,99.0,'11144222,99999999,11144222' 
ADCP,ioos:station:wmo:42361:1,2015-02-04T08:30:00Z,27.5500,-92.4900,122.0,99.0,-9999.0,99.0,'11144222,99999999,11144222' 
ADCP,ioos:station:wmo:42361:1,2015-02-04T09:30:00Z,27.5500,-92.4900,122.0,99.0,-9999.0,99.0,'11144222,99999999,11144222' 
ADCP,ioos:station:wmo:42361:1,2015-02-04T10:30:00Z,27.5500,-92.4900,122.0,99.0,-9999.0,99.0,'11144222,99999999,11144222' 
ADCP,ioos:station:wmo:42361:1,2015-02-04T11:30:00Z,27.5500,-92.4900,122.0,99.0,-9999.0,99.0,'11144222,99999999,11144222' 
ADCP,ioos:station:wmo:42361:1,2015-02-04T12:30:00Z,27.5500,-92.4900,122.0,99.0,-9999.0,99.0,'11144222,99999999,11144222' 
ADCP,ioos:station:wmo:42361:1,2015-02-04T13:30:00Z,27.5500,-92.4900,122.0,99.0,-9999.0,99.0,'11144222,99999999,11144222' 
ADCP,ioos:station:wmo:42361:1,2015-02-04T14:30:00Z,27.5500,-92.4900,122.0,99.0,-9999.0,99.0,'11144222,99999999,11144222' 
ADCP,ioos:station:wmo:42361:1,2015-02-04T15:30:00Z,27.5500,-92.4900,122.0,99.0,-9999.0,99.0,'11144222,99999999,11144222' 
ADCP,ioos:station:wmo:42361:1,2015-02-04T16:30:00Z,27.5500,-92.4900,122.0,23.1,46.0,99.0,'11111222,11111222,11144222' 
ADCP,ioos:station:wmo:42361:1,2015-02-04T17:30:00Z,27.5500,-92.4900,122.0,17.7,9.0,99.0,'11111222,11111222,11144222' 
ADCP,ioos:station:wmo:42361:1,2015-02-04T18:30:00Z,27.5500,-92.4900,122.0,18.4,17.0,99.0,'11111222,11111222,11144222' 
ADCP,ioos:station:wmo:42361:1,2015-02-04T19:30:00Z,27.5500,-92.4900,122.0,17.7,30.0,99.0,'11111222,11111222,11144222' 
ADCP,ioos:station:wmo:42361:1,2015-02-04T20:30:00Z,27.5500,-92.4900,122.0,15.4,40.0,99.0,'11111222,11111222,11144222' 
ADCP,ioos:station:wmo:42361:1,2015-02-04T21:30:00Z,27.5500,-92.4900,122.0,13.7,46.0,99.0,'11111222,11111222,11144222' 
ADCP,ioos:station:wmo:42361:1,2015-02-04T22:30:00Z,27.5500,-92.4900,122.0,11.9,49.0,99.0,'11111222,11111222,11144222' 
ADCP,ioos:station:wmo:42361:1,2015-02-04T23:30:00Z,27.5500,-92.4900,122.0,9.8,59.0,99.0,'11111222,11111222,11144222' 
ADCP,ioos:station:wmo:42361:1,2015-02-05T00:30:00Z,27.5500,-92.4900,122.0,6.4,30.0,99.0,'11111222,11111222,11144222' 
ADCP,ioos:station:wmo:42361:1,2015-02-05T01:30:00Z,27.5500,-92.4900,122.0,5.2,13.0,99.0,'11111222,11111222,11144222' 
ADCP,ioos:station:wmo:42361:1,2015-02-05T02:30:00Z,27.5500,-92.4900,122.0,6.6,350.0,99.0,'11111222,11111222,11144222' 
ADCP,ioos:station:wmo:42361:1,2015-02-05T03:30:00Z,27.5500,-92.4900,122.0,7.9,350.0,99.0,'11111222,11111222,11144222' 
ADCP,ioos:station:wmo:42361:1,2015-02-05T04:30:00Z,27.5500,-92.4900,122.0,9.5,353.0,99.0,'11111222,11111222,11144222' 
ADCP,ioos:station:wmo:42361:1,2015-02-05T05:30:00Z,27.5500,-92.4900,122.0,9.2,358.0,99.0,'11111222,11111222,11144222' 
ADCP,ioos:station:wmo:42361:1,2015-02-05T06:30:00Z,27.5500,-92.4900,122.0,10.5,350.0,99.0,'11111222,11111222,11144222' 
ADCP,ioos:station:wmo:42361:1,2015-02-05T07:30:00Z,27.5500,-92.4900,122.0,10.3,351.0,99.0,'11111222,11111222,11144222' 
ADCP,ioos:station:wmo:42361:1,2015-02-05T08:30:00Z,27.5500,-92.4900,122.0,9.8,350.0,99.0,'11111222,11111222,11144222' 
ADCP,ioos:station:wmo:42361:1,2015-02-05T09:30:00Z,27.5500,-92.4900,122.0,10.2,350.0,99.0,'11111222,11111222,11144222' 
ADCP,ioos:station:wmo:42361:1,2015-02-05T10:30:00Z,27.5500,-92.4900,122.0,10.1,356.0,99.0,'11111222,11111222,11144222' 
ADCP,ioos:station:wmo:42361:1,2015-02-05T11:30:00Z,27.5500,-92.4900,122.0,9.9,1.0,99.0,'11111222,11111222,11144222' 
ADCP,ioos:station:wmo:42361:1,2015-02-05T12:30:00Z,27.5500,-92.4900,122.0,11.0,355.0,99.0,'11111222,11111222,11144222' 
ADCP,ioos:station:wmo:42361:1,2015-02-05T13:30:00Z,27.5500,-92.4900,122.0,10.9,359.0,99.0,'11111222,11111222,11144222' 
ADCP,ioos:station:wmo:42361:1,2015-02-05T14:30:00Z,27.5500,-92.4900,122.0,10.5,359.0,99.0,'11111222,11111222,11144222' 
ADCP,ioos:station:wmo:42361:1,2015-02-05T15:30:00Z,27.5500,-92.4900,122.0,10.3,1.0,99.0,'11111222,11111222,11144222' 
ADCP,ioos:station:wmo:42361:1,2015-02-05T16:30:00Z,27.5500,-92.4900,122.0,9.7,3.0,99.0,'11111222,11111222,11144222' 
ADCP,ioos:station:wmo:42361:1,2015-02-05T17:30:00Z,27.5500,-92.4900,122.0,8.5,1.0,99.0,'11111222,11111222,11144222' 
ADCP,ioos:station:wmo:42361:1,2015-02-05T18:30:00Z,27.5500,-92.4900,122.0,8.1,360.0,99.0,'11111222,11144222,11144222' 
ADCP,ioos:station:wmo:42361:1,2015-02-05T19:30:00Z,27.5500,-92.4900,122.0,7.9,5.0,99.0,'11111222,11111222,11144222' 
ADCP,ioos:station:wmo:42361:1,2015-02-05T20:30:00Z,27.5500,-92.4900,122.0,7.6,5.0,99.0,'11111222,11111222,11144222' 
ADCP,ioos:station:wmo:42361:1,2015-02-05T21:30:00Z,27.5500,-92.4900,122.0,7.1,3.0,99.0,'11111222,11111222,11144222' 
ADCP,ioos:station:wmo:42361:1,2015-02-05T22:30:00Z,27.5500,-92.4900,122.0,7.2,358.0,99.0,'11111222,11111222,11144222' 
ADCP,ioos:station:wmo:42361:1,2015-02-05T23:30:00Z,27.5500,-92.4900,122.0,7.3,356.0,99.0,'11111222,11111222,11144222' 
ADCP,ioos:station:wmo:42361:1,2015-02-06T00:30:00Z,27.5500,-92.4900,122.0,7.1,353.0,99.0,'11111222,11111222,11144222' 
ADCP,ioos:station:wmo:42361:1,2015-02-06T01:30:00Z,27.5500,-92.4900,122.0,7.2,350.0,99.0,'11111222,11111222,11144222' 
ADCP,ioos:station:wmo:42361:1,2015-02-06T02:30:00Z,27.5500,-92.4900,122.0,7.3,348.0,99.0,'11111222,11111222,11144222' 
ADCP,ioos:station:wmo:42361:1,2015-02-06T03:30:00Z,27.5500,-92.4900,122.0,6.8,357.0,99.0,'11111222,11111222,11144222' 
ADCP,ioos:station:wmo:42361:1,2015-02-06T04:30:00Z,27.5500,-92.4900,122.0,7.3,360.0,99.0,'11111222,11144222,11144222' 
ADCP,ioos:station:wmo:42361:1,2015-02-06T05:30:00Z,27.5500,-92.4900,122.0,7.9,359.0,99.0,'11111222,11111222,11144222' 
ADCP,ioos:station:wmo:42361:1,2015-02-06T06:30:00Z,27.5500,-92.4900,122.0,8.5,360.0,99.0,'11111222,11144222,11144222' 
ADCP,ioos:station:wmo:42361:1,2015-02-06T07:30:00Z,27.5500,-92.4900,122.0,7.6,7.0,99.0,'11111222,11111222,11144222' 
ADCP,ioos:station:wmo:42361:1,2015-02-06T08:30:00Z,27.5500,-92.4900,122.0,7.2,3.0,99.0,'11111222,11111222,11144222' 
ADCP,ioos:station:wmo:42361:1,2015-02-06T09:30:00Z,27.5500,-92.4900,122.0,7.2,2.0,99.0,'11111222,11111222,11144222' 
ADCP,ioos:station:wmo:42361:1,2015-02-06T10:30:00Z,27.5500,-92.4900,122.0,7.6,360.0,99.0,'11111222,11144222,11144222' 
ADCP,ioos:station:wmo:42361:1,2015-02-06T11:30:00Z,27.5500,-92.4900,122.0,8.8,3.0,99.0,'11111222,11111222,11144222' 
ADCP,ioos:station:wmo:42361:1,2015-02-06T12:30:00Z,27.5500,-92.4900,122.0,8.6,12.0,99.0,'11111222,11111222,11144222' 
ADCP,ioos:station:wmo:42361:1,2015-02-06T13:30:00Z,27.5500,-92.4900,122.0,7.8,9.0,99.0,'11111222,11111222,11144222' 
ADCP,ioos:station:wmo:42361:1,2015-02-06T14:30:00Z,27.5500,-92.4900,122.0,8.3,17.0,99.0,'11111222,11111222,11144222' 
ADCP,ioos:station:wmo:42361:1,2015-02-06T15:30:00Z,27.5500,-92.4900,122.0,7.5,17.0,99.0,'11111222,11111222,11144222' 
ADCP,ioos:station:wmo:42361:1,2015-02-06T16:30:00Z,27.5500,-92.4900,122.0,7.4,23.0,99.0,'11111222,11111222,11144222' 
ADCP,ioos:station:wmo:42361:1,2015-02-06T17:30:00Z,27.5500,-92.4900,122.0,7.2,26.0,99.0,'11111222,11111222,11144222' 
ADCP,ioos:station:wmo:42361:1,2015-02-06T18:30:00Z,27.5500,-92.4900,122.0,6.6,25.0,99.0,'11111222,11111222,11144222' 
ADCP,ioos:station:wmo:42361:1,2015-02-06T19:30:00Z,27.5500,-92.4900,122.0,5.9,26.0,99.0,'11111222,11111222,11144222' 
ADCP,ioos:station:wmo:42361:1,2015-02-06T20:30:00Z,27.5500,-92.4900,122.0,6.6,21.0,99.0,'11111222,11111222,11144222' 
ADCP,ioos:station:wmo:42361:1,2015-02-06T21:30:00Z,27.5500,-92.4900,122.0,6.4,27.0,99.0,'11111222,11111222,11144222' 
ADCP,ioos:station:wmo:42361:1,2015-02-06T22:30:00Z,27.5500,-92.4900,122.0,6.7,26.0,99.0,'11111222,11111222,11144222' 
ADCP,ioos:station:wmo:42361:1,2015-02-06T23:30:00Z,27.5500,-92.4900,122.0,6.7,40.0,99.0,'11111222,11111222,11144222' 
ADCP,ioos:station:wmo:42361:1,2015-02-07T00:30:00Z,27.5500,-92.4900,122.0,6.4,43.0,99.0,'11111222,11111222,11144222' 
ADCP,ioos:station:wmo:42361:1,2015-02-07T01:30:00Z,27.5500,-92.4900,122.0,6.0,46.0,99.0,'11111222,11111222,11144222' 
ADCP,ioos:station:wmo:42361:1,2015-02-07T02:30:00Z,27.5500,-92.4900,122.0,6.5,47.0,99.0,'11111222,11111222,11144222' 
ADCP,ioos:station:wmo:42361:1,2015-02-07T03:30:00Z,27.5500,-92.4900,122.0,5.9,62.0,99.0,'11111222,11111222,11144222' 
ADCP,ioos:station:wmo:42361:1,2015-02-07T04:30:00Z,27.5500,-92.4900,122.0,5.0,72.0,99.0,'11111222,11111222,11144222' 
ADCP,ioos:station:wmo:42361:1,2015-02-07T05:30:00Z,27.5500,-92.4900,122.0,4.0,72.0,99.0,'11111222,11111222,11144222' 
ADCP,ioos:station:wmo:42361:1,2015-02-07T06:30:00Z,27.5500,-92.4900,122.0,3.4,76.0,99.0,'11111222,11111222,11144222' 
ADCP,ioos:station:wmo:42361:1,2015-02-07T07:30:00Z,27.5500,-92.4900,122.0,3.5,78.0,99.0,'11111222,11111222,11144222' 
ADCP,ioos:station:wmo:42361:1,2015-02-07T08:30:00Z,27.5500,-92.4900,122.0,3.6,81.0,99.0,'11111222,11111222,11144222' 
ADCP,ioos:station:wmo:42361:1,2015-02-07T09:30:00Z,27.5500,-92.4900,122.0,3.5,81.0,99.0,'11111222,11111222,11144222' 
ADCP,ioos:station:wmo:42361:1,2015-02-07T10:30:00Z,27.5500,-92.4900,122.0,3.5,89.0,99.0,'11111222,11111222,11144222' 
ADCP,ioos:station:wmo:42361:1,2015-02-07T11:30:00Z,27.5500,-92.4900,122.0,3.1,78.0,99.0,'11111222,11111222,11144222' 
ADCP,ioos:station:wmo:42361:1,2015-02-07T12:30:00Z,27.5500,-92.4900,122.0,3.7,71.0,99.0,'11111222,11111222,11144222' 
ADCP,ioos:station:wmo:42361:1,2015-02-07T13:30:00Z,27.5500,-92.4900,122.0,3.8,72.0,99.0,'11111222,11111222,11144222' 
ADCP,ioos:station:wmo:42361:1,2015-02-07T14:30:00Z,27.5500,-92.4900,122.0,3.8,99.0,99.0,'11111222,11111222,11144222' 
ADCP,ioos:station:wmo:42361:1,2015-02-07T15:30:00Z,27.5500,-92.4900,122.0,4.5,103.0,99.0,'11111222,11111222,11144222' 
ADCP,ioos:station:wmo:42361:1,2015-02-07T16:30:00Z,27.5500,-92.4900,122.0,4.2,103.0,99.0,'11111222,11111222,11144222' 
ADCP,ioos:station:wmo:42361:1,2015-02-07T17:30:00Z,27.5500,-92.4900,122.0,4.6,105.0,99.0,'11111222,11111222,11144222' 
ADCP,ioos:station:wmo:42361:1,2015-02-07T18:30:00Z,27.5500,-92.4900,122.0,5.6,115.0,99.0,'11111222,11111222,11144222' 
ADCP,ioos:station:wmo:42361:1,2015-02-07T19:30:00Z,27.5500,-92.4900,122.0,5.5,123.0,99.0,'11111222,11111222,11144222' 
ADCP,ioos:station:wmo:42361:1,2015-02-07T20:30:00Z,27.5500,-92.4900,122.0,5.5,130.0,99.0,'11111222,11111222,11144222' 
ADCP,ioos:station:wmo:42361:1,2015-02-07T21:30:00Z,27.5500,-92.4900,122.0,6.1,126.0,99.0,'11111222,11111222,11144222' 
ADCP,ioos:station:wmo:42361:1,2015-02-07T22:30:00Z,27.5500,-92.4900,122.0,5.6,146.0,99.0,'11111222,11111222,11144222' 
ADCP,ioos:station:wmo:42361:1,2015-02-07T23:30:00Z,27.5500,-92.4900,122.0,5.0,159.0,99.0,'11111222,11111222,11144222' 
ADCP,ioos:station:wmo:42361:1,2015-02-08T00:30:00Z,27.5500,-92.4900,122.0,4.4,158.0,99.0,'11111222,11111222,11144222' 
ADCP,ioos:station:wmo:42361:1,2015-02-08T01:30:00Z,27.5500,-92.4900,122.0,5.4,142.0,99.0,'11111222,11111222,11144222' 
ADCP,ioos:station:wmo:42361:1,2015-02-08T02:30:00Z,27.5500,-92.4900,122.0,7.1,140.0,99.0,'11111222,11111222,11144222' 
ADCP,ioos:station:wmo:42361:1,2015-02-08T03:30:00Z,27.5500,-92.4900,122.0,8.0,146.0,99.0,'11111222,11111222,11144222' 
ADCP,ioos:station:wmo:42361:1,2015-02-08T04:30:00Z,27.5500,-92.4900,122.0,8.9,152.0,99.0,'11111222,11111222,11144222' 
ADCP,ioos:station:wmo:42361:1,2015-02-08T05:30:00Z,27.5500,-92.4900,122.0,8.5,154.0,99.0,'11111222,11111222,11144222' 
ADCP,ioos:station:wmo:42361:1,2015-02-08T06:30:00Z,27.5500,-92.4900,122.0,8.7,153.0,99.0,'11111222,11111222,11144222' 
ADCP,ioos:station:wmo:42361:1,2015-02-08T07:30:00Z,27.5500,-92.4900,122.0,9.0,156.0,99.0,'11111222,11111222,11144222' 
ADCP,ioos:station:wmo:42361:1,2015-02-08T08:30:00Z,27.5500,-92.4900,122.0,9.7,155.0,99.0,'11111222,11111222,11144222' 
ADCP,ioos:station:wmo:42361:1,2015-02-08T09:30:00Z,27.5500,-92.4900,122.0,9.9,163.0,99.0,'11111222,11111222,11144222' 
ADCP,ioos:station:wmo:42361:1,2015-02-08T10:30:00Z,27.5500,-92.4900,122.0,10.5,163.0,99.0,'11111222,11111222,11144222' 
ADCP,ioos:station:wmo:42361:1,2015-02-08T11:30:00Z,27.5500,-92.4900,122.0,10.4,162.0,99.0,'11111222,11111222,11144222' 
ADCP,ioos:station:wmo:42361:1,2015-02-08T12:30:00Z,27.5500,-92.4900,122.0,9.8,162.0,99.0,'11111222,11111222,11144222' 
ADCP,ioos:station:wmo:42361:1,2015-02-08T13:30:00Z,27.5500,-92.4900,122.0,9.8,161.0,99.0,'11111222,11111222,11144222' 
ADCP,ioos:station:wmo:42361:1,2015-02-08T14:30:00Z,27.5500,-92.4900,122.0,9.7,162.0,99.0,'11111222,11111222,11144222' 
ADCP,ioos:station:wmo:42361:1,2015-02-08T15:30:00Z,27.5500,-92.4900,122.0,9.2,162.0,99.0,'11111222,11111222,11144222' 
ADCP,ioos:station:wmo:42361:1,2015-02-08T16:30:00Z,27.5500,-92.4900,122.0,9.3,159.0,99.0,'11111222,11111222,11144222' 
ADCP,ioos:station:wmo:42361:1,2015-02-08T17:30:00Z,27.5500,-92.4900,122.0,10.2,211.0,99.0,'11111222,11111222,11144222' 
ADCP,ioos:station:wmo:42361:1,2015-02-08T18:30:00Z,27.5500,-92.4900,122.0,10.1,213.0,99.0,'11111222,11111222,11144222' 
ADCP,ioos:station:wmo:42361:1,2015-02-08T19:30:00Z,27.5500,-92.4900,122.0,5.9,200.0,99.0,'11111222,11111222,11144222' 
ADCP,ioos:station:wmo:42361:1,2015-02-08T20:30:00Z,27.5500,-92.4900,122.0,5.3,218.0,99.0,'11111222,11111222,11144222' 
ADCP,ioos:station:wmo:42361:1,2015-02-08T21:30:00Z,27.5500,-92.4900,122.0,5.1,216.0,99.0,'11111222,11111222,11144222' 
ADCP,ioos:station:wmo:42361:1,2015-02-08T22:30:00Z,27.5500,-92.4900,122.0,5.5,199.0,99.0,'11111222,11111222,11144222' 
ADCP,ioos:station:wmo:42361:1,2015-02-08T23:30:00Z,27.5500,-92.4900,122.0,5.5,205.0,99.0,'11111222,11111222,11144222' 
ADCP,ioos:station:wmo:42361:1,2015-02-09T00:30:00Z,27.5500,-92.4900,122.0,4.6,195.0,99.0,'11111222,11111222,11144222' 
ADCP,ioos:station:wmo:42361:1,2015-02-09T01:30:00Z,27.5500,-92.4900,122.0,99.0,-9999.0,99.0,'11144222,99999999,11144222' 
ADCP,ioos:station:wmo:42361:1,2015-02-09T02:30:00Z,27.5500,-92.4900,122.0,3.9,225.0,99.0,'11111222,11111222,11144222' 
ADCP,ioos:station:wmo:42361:1,2015-02-09T03:30:00Z,27.5500,-92.4900,122.0,3.4,231.0,99.0,'11111222,11111222,11144222' 
ADCP,ioos:station:wmo:42361:1,2015-02-09T04:30:00Z,27.5500,-92.4900,122.0,4.0,220.0,99.0,'11111222,11111222,11144222' 
ADCP,ioos:station:wmo:42361:1,2015-02-09T05:30:00Z,27.5500,-92.4900,122.0,4.5,198.0,99.0,'11111222,11111222,11144222' 
ADCP,ioos:station:wmo:42361:1,2015-02-09T06:30:00Z,27.5500,-92.4900,122.0,5.6,199.0,99.0,'11111222,11111222,11144222' 
ADCP,ioos:station:wmo:42361:1,2015-02-09T07:30:00Z,27.5500,-92.4900,122.0,6.3,211.0,99.0,'11111222,11111222,11144222' 
ADCP,ioos:station:wmo:42361:1,2015-02-09T08:30:00Z,27.5500,-92.4900,122.0,7.1,240.0,99.0,'11111222,11111222,11144222' 
ADCP,ioos:station:wmo:42361:1,2015-02-09T09:30:00Z,27.5500,-92.4900,122.0,6.8,254.0,99.0,'11111222,11111222,11144222' 
ADCP,ioos:station:wmo:42361:1,2015-02-09T10:30:00Z,27.5500,-92.4900,122.0,5.6,265.0,99.0,'11111222,11111222,11144222' 
ADCP,ioos:station:wmo:42361:1,2015-02-09T11:30:00Z,27.5500,-92.4900,122.0,5.1,267.0,99.0,'11111222,11111222,11144222' 
ADCP,ioos:station:wmo:42361:1,2015-02-09T12:30:00Z,27.5500,-92.4900,122.0,3.7,272.0,99.0,'11111222,11111222,11144222' 
ADCP,ioos:station:wmo:42361:1,2015-02-09T13:30:00Z,27.5500,-92.4900,122.0,4.1,270.0,99.0,'11111222,11111222,11144222' 
ADCP,ioos:station:wmo:42361:1,2015-02-09T14:30:00Z,27.5500,-92.4900,122.0,3.7,272.0,99.0,'11111222,11111222,11144222' 
ADCP,ioos:station:wmo:42361:1,2015-02-09T15:30:00Z,27.5500,-92.4900,122.0,3.6,281.0,99.0,'11111222,11111222,11144222' 
ADCP,ioos:station:wmo:42361:1,2015-02-09T16:30:00Z,27.5500,-92.4900,122.0,4.4,284.0,99.0,'11111222,11111222,11144222' 
ADCP,ioos:station:wmo:42361:1,2015-02-09T17:30:00Z,27.5500,-92.4900,122.0,5.6,291.0,99.0,'11111222,11111222,11144222' 
ADCP,ioos:station:wmo:42361:1,2015-02-09T18:30:00Z,27.5500,-92.4900,122.0,6.6,298.0,99.0,'11111222,11111222,11144222' 
ADCP,ioos:station:wmo:42361:1,2015-02-09T19:30:00Z,27.5500,-92.4900,122.0,8.0,305.0,99.0,'11111222,11111222,11144222' 
ADCP,ioos:station:wmo:42361:1,2015-02-09T20:30:00Z,27.5500,-92.4900,122.0,9.4,306.0,99.0,'11111222,11111222,11144222' 
ADCP,ioos:station:wmo:42361:1,2015-02-09T21:30:00Z,27.5500,-92.4900,122.0,7.3,300.0,99.0,'11111222,11111222,11144222' 
ADCP,ioos:station:wmo:42361:1,2015-02-09T22:30:00Z,27.5500,-92.4900,122.0,7.4,302.0,99.0,'11111222,11111222,11144222' 
ADCP,ioos:station:wmo:42361:1,2015-02-09T23:30:00Z,27.5500,-92.4900,122.0,6.2,300.0,99.0,'11111222,11111222,11144222' 
ADCP,ioos:station:wmo:42361:1,2015-02-10T00:30:00Z,27.5500,-92.4900,122.0,6.1,298.0,99.0,'11111222,11111222,11144222' 
ADCP,ioos:station:wmo:42361:1,2015-02-10T01:30:00Z,27.5500,-92.4900,122.0,8.4,307.0,99.0,'11111222,11111222,11144222' 
ADCP,ioos:station:wmo:42361:1,2015-02-10T02:30:00Z,27.5500,-92.4900,122.0,7.1,304.0,99.0,'11111222,11111222,11144222' 
ADCP,ioos:station:wmo:42361:1,2015-02-10T03:30:00Z,27.5500,-92.4900,122.0,5.0,297.0,99.0,'11111222,11111222,11144222' 
ADCP,ioos:station:wmo:42361:1,2015-02-10T04:30:00Z,27.5500,-92.4900,122.0,5.1,297.0,99.0,'11111222,11111222,11144222' 
ADCP,ioos:station:wmo:42361:1,2015-02-10T05:30:00Z,27.5500,-92.4900,122.0,4.6,298.0,99.0,'11111222,11111222,11144222' 
ADCP,ioos:station:wmo:42361:1,2015-02-10T06:30:00Z,27.5500,-92.4900,122.0,2.8,290.0,99.0,'11111222,11111222,11144222' 
ADCP,ioos:station:wmo:42361:1,2015-02-10T07:30:00Z,27.5500,-92.4900,122.0,4.1,291.0,99.0,'11111222,11111222,11144222' 
ADCP,ioos:station:wmo:42361:1,2015-02-10T08:30:00Z,27.5500,-92.4900,122.0,4.6,293.0,99.0,'11111222,11111222,11144222' 
ADCP,ioos:station:wmo:42361:1,2015-02-10T09:30:00Z,27.5500,-92.4900,122.0,6.5,319.0,99.0,'11111222,11111222,11144222' 
ADCP,ioos:station:wmo:42361:1,2015-02-10T10:30:00Z,27.5500,-92.4900,122.0,6.8,354.0,99.0,'11111222,11111222,11144222' 
ADCP,ioos:station:wmo:42361:1,2015-02-10T11:30:00Z,27.5500,-92.4900,122.0,7.4,20.0,99.0,'11111222,11111222,11144222' 
ADCP,ioos:station:wmo:42361:1,2015-02-10T12:30:00Z,27.5500,-92.4900,122.0,7.7,32.0,99.0,'11111222,11111222,11144222' 
ADCP,ioos:station:wmo:42361:1,2015-02-10T13:30:00Z,27.5500,-92.4900,122.0,8.1,37.0,99.0,'11111222,11111222,11144222' 
ADCP,ioos:station:wmo:42361:1,2015-02-10T14:30:00Z,27.5500,-92.4900,122.0,7.3,33.0,99.0,'11111222,11111222,11144222' 
ADCP,ioos:station:wmo:42361:1,2015-02-10T15:30:00Z,27.5500,-92.4900,122.0,6.7,34.0,99.0,'11111222,11111222,11144222' 
ADCP,ioos:station:wmo:42361:1,2015-02-10T16:30:00Z,27.5500,-92.4900,122.0,6.0,32.0,99.0,'11111222,11111222,11144222' 
ADCP,ioos:station:wmo:42361:1,2015-02-10T17:30:00Z,27.5500,-92.4900,122.0,6.2,22.0,99.0,'11111222,11111222,11144222' 
ADCP,ioos:station:wmo:42361:1,2015-02-10T18:30:00Z,27.5500,-92.4900,122.0,6.8,21.0,99.0,'11111222,11111222,11144222' 
ADCP,ioos:station:wmo:42361:1,2015-02-10T19:30:00Z,27.5500,-92.4900,122.0,6.0,15.0,99.0,'11111222,11111222,11144222' 
ADCP,ioos:station:wmo:42361:1,2015-02-10T20:30:00Z,27.5500,-92.4900,122.0,5.5,13.0,99.0,'11111222,11111222,11144222' 
ADCP,ioos:station:wmo:42361:1,2015-02-10T21:30:00Z,27.5500,-92.4900,122.0,4.7,10.0,99.0,'11111222,11111222,11144222' 
ADCP,ioos:station:wmo:42361:1,2015-02-10T22:30:00Z,27.5500,-92.4900,122.0,3.9,3.0,99.0,'11111222,11111222,11144222' 
ADCP,ioos:station:wmo:42361:1,2015-02-10T23:30:00Z,27.5500,-92.4900,122.0,3.5,356.0,99.0,'11111222,11111222,11144222' 
ADCP,ioos:station:wmo:42361:1,2015-02-11T00:30:00Z,27.5500,-92.4900,122.0,3.1,360.0,99.0,'11111222,11144222,11144222' 
ADCP,ioos:station:wmo:42361:1,2015-02-11T01:30:00Z,27.5500,-92.4900,122.0,2.4,352.0,99.0,'11111222,11111222,11144222' 
ADCP,ioos:station:wmo:42361:1,2015-02-11T02:30:00Z,27.5500,-92.4900,122.0,3.0,352.0,99.0,'11111222,11111222,11144222' 
ADCP,ioos:station:wmo:42361:1,2015-02-11T03:30:00Z,27.5500,-92.4900,122.0,2.7,351.0,99.0,'11111222,11111222,11144222' 
ADCP,ioos:station:wmo:42361:1,2015-02-11T04:30:00Z,27.5500,-92.4900,122.0,2.4,359.0,99.0,'11111222,11111222,11144222' 
ADCP,ioos:station:wmo:42361:1,2015-02-11T05:30:00Z,27.5500,-92.4900,122.0,2.9,12.0,99.0,'11111222,11111222,11144222' 
ADCP,ioos:station:wmo:42361:1,2015-02-11T06:30:00Z,27.5500,-92.4900,122.0,3.4,24.0,99.0,'11111222,11111222,11144222' 
ADCP,ioos:station:wmo:42361:1,2015-02-11T07:30:00Z,27.5500,-92.4900,122.0,3.8,30.0,99.0,'11111222,11111222,11144222' 
ADCP,ioos:station:wmo:42361:1,2015-02-11T08:30:00Z,27.5500,-92.4900,122.0,4.0,31.0,99.0,'11111222,11111222,11144222' 
ADCP,ioos:station:wmo:42361:1,2015-02-11T09:30:00Z,27.5500,-92.4900,122.0,4.8,48.0,99.0,'11111222,11111222,11144222' 
ADCP,ioos:station:wmo:42361:1,2015-02-11T10:30:00Z,27.5500,-92.4900,122.0,5.0,58.0,99.0,'11111222,11111222,11144222' 
ADCP,ioos:station:wmo:42361:1,2015-02-11T11:30:00Z,27.5500,-92.4900,122.0,3.3,72.0,99.0,'11111222,11111222,11144222' 
ADCP,ioos:station:wmo:42361:1,2015-02-11T12:30:00Z,27.5500,-92.4900,122.0,0.9,54.0,99.0,'11111222,11111222,11144222' 
ADCP,ioos:station:wmo:42361:1,2015-02-11T13:30:00Z,27.5500,-92.4900,122.0,0.7,38.0,99.0,'11111222,11111222,11144222' 